THOR ABLESTAR DEB, 223

Orbit data source: Space-Track

THOR ABLESTAR DEB, 223 is space debris in LEO originally from a launch on Thu, 29 Jun 1961 UTC launched from the Air Force Eastern Test Range (AFETR). Debris objects in space refer to the collection of defunct objects orbiting the Earth. Examples of debris include non-operational satellites, rocket bodies, and fragments generated from explosions, collisions, or faulty payload assembly.

Loading next visibility...
Identifier
223, 1961-015BK
Orbit
LEO
Country
Flag of USUS
Related business
Manufacturer
Unknown
Mission
Spacecraft
Bus & Motor
Unknown
Mass
Unknown
Launch date (UTC)
1961-06-29 (65 years ago)
Launch vehicle
Unknown
Launch site
Air Force Eastern Test Range (AFETR)
Object type
Payload
Rocket body
Debris
Shape & HBR
Unknown shape, 0.3 m
Radar Cross Section
Medium (>0.1 m² and <1 m²)

Expand to show TLE details & history
Last TLE update: 10 hours ago

TLE from 10 hours ago
0 THOR ABLESTAR DEB
1 00223U 61015BK  26095.26786731  .00000016  00000-0  74647-4 0  9991
2 00223  66.8889 138.5805 0066605  11.2976 348.9579 13.89009983280749
Epoch: 2026-04-05T06:25Z
TLE epoch observation values (Epoch: 2026-04-05T06:25:43.735Z)
Latitude
-0.00002°
Longitude
-151.42747°
Altitude
886.402 km
Speed
7.434 km/s
True Right ascension
09h 14m 19s
True Declination
0° 00' 00"
Sunlit
Object was in full shadow at epoch
Visualization orbit readout
Latitude
Unknown
Longitude
Unknown
Altitude
Unknown
Speed
Unknown
Apparent Right ascension
Unknown
Apparent Declination
Unknown
Sunlit
N/A
Visualization observer readout
Local Sidereal Time
22:34:41
Azimuth
Unknown
Elevation
Unknown
Doppler factor
Unknown
Orbital elements
Apogee altitude
979.166 km
Perigee altitude
881.808 km
Semi-major axis
7,308.624 km
Eccentricity
0.00666
Inclination
66.8889°
RAAN
138.5805°
Arg. of periapsis
11.2976°
True anomaly
348.81051°
Mean anomaly
348.9579°
Eccentric anomaly
348.88433°
Mean motion
3.47368 °/min
Orbital period
103.64 mins
BSTAR
0.000074647
Loading maneuver chart data...
Computing Atmospheric mass density...
Loading historical data...
Loading historical data...
Loading historical data...
Loading historical data...
Loading historical data...
Loading historical data...
Loading historical data...

Documentation

Showing up to 5 results
|